DECAYED

NOAA 16 DEB, 41142 (Decayed)

Orbit data source: Space-Track

NOAA 16 DEB, 41142 was space debris in SSO originally from a launch on Thu, 21 Sep 2000 UTC launched from the Air Force Western Test Range (AFWTR). Debris objects in space refer to the collection of defunct objects orbiting the Earth. Examples of debris include non-operational satellites, rocket bodies, and fragments generated from explosions, collisions, or faulty payload assembly.

Not visible in the next 10 days
Identifier
41142, 2000-055BZ
Orbit
Decayed
Country
Flag of USUS
Related business
Manufacturer
Unknown
Mission
Decayed spacecraft
Bus & Motor
Unknown
Mass
Unknown
Launch date (UTC)
2000-09-21 (26 years ago)
Launch vehicle
Unknown
Launch site
Air Force Western Test Range (AFWTR)
Object type
Payload
Rocket body
Debris
Shape & HBR
Unknown shape, 0.050 m
Radar Cross Section
Small (<0.1 m²)

Expand to show TLE details & history
Last TLE update: 4 weeks ago

TLE from 4 weeks ago
0 NOAA 16 DEB
1 41142U 00055BZ  26242.49853304  .01296416  00000-0  11977-1 0  9999
2 41142  98.8058 130.8114 0007640 155.7462 204.4154 15.64628613565173
Epoch: 2026-08-30T11:57Z
TLE epoch observation values (Epoch: 2026-08-30T11:57:53.254Z)
Latitude
-0.00002°
Longitude
-27.35374°
Altitude
382.112 km
Speed
7.678 km/s
True Right ascension
08h 43m 14s
True Declination
0° 00' 00"
Sunlit
Object was in daylight at epoch
Visualization orbit readout
Latitude
Unknown
Longitude
Unknown
Altitude
Unknown
Speed
Unknown
Apparent Right ascension
Unknown
Apparent Declination
Unknown
Sunlit
N/A
Visualization observer readout
Local Sidereal Time
03:22:44
Azimuth
Unknown
Elevation
Unknown
Doppler factor
Unknown
Orbital elements
Apogee altitude
376.437 km
Perigee altitude
366.124 km
Semi-major axis
6,749.417 km
Eccentricity
0.00076
Inclination
98.8058°
RAAN
130.8114°
Arg. of periapsis
155.7462°
True anomaly
204.37924°
Mean anomaly
204.4154°
Eccentric anomaly
204.39732°
Mean motion
3.91421 °/min
Orbital period
91.97 mins
BSTAR
0.011977
Loading maneuver chart data...
Computing Atmospheric mass density...
Loading historical data...
Loading historical data...
Loading historical data...
Loading historical data...
Loading historical data...
Loading historical data...
Loading historical data...

Documentation

Showing up to 5 results
|